Regional Weather Roundup
Issued by NWS

Home | Current Version | Previous Version | Graphics & Text | Print | Product List | Glossary On
Versions: 1 2 3 4 5 6 7 8 9 10 11 12 13 14 15 16 17 18 19 20 21 22 23 24 25 26 27 28 29 30 31 32 33 34 35 36 37 38 39 40 41 42 43 44 45 46 47 48 49 50
000
ASUS43 KIND 250959
RWRIN

WEATHER ROUNDUP FOR INDIANA
NATIONAL WEATHER SERVICE INDIANAPOLIS IN
600 AM EDT SAT MAR 25 2017

NOTE: "FAIR" INDICATES FEW OR NO CLOUDS BELOW 12,000 FEET WITH NO
SIGNIFICANT WEATHER AND/OR OBSTRUCTIONS TO VISIBILITY.

* - STATION DOES NOT REPORT WEATHER SUCH AS PRECIPITATION OR FOG.

+ - STATION NOT QUALITY CONTROLLED BY THE NATIONAL WEATHER SERVICE.
    USE DATA WITH CAUTION...ESPECIALLY DEWPOINT AND RELATIVE
    HUMIDITY OBSERVATIONS.

INZ001>003-010>013-019-020-251100-
NORTHWEST INDIANA

CITY           SKY/WX    TMP DP  RH WIND       PRES   REMARKS
GARY /AIRPORT/ CLOUDY    41  39  93 N8        30.02F
MONTICELLO +   MOCLDY    54  49  84 E5        29.99R
VALPARAISO     LGT RAIN  41  39  93 NE8       30.01F

$$

LMZ046-743>745-251100-
SOUTHERN LAKE MICHIGAN

STATION/POSITION TIME  TEMP    WIND        PRES    WAVE
                       AIR SEA DIR/SP/G            HT
                 (UTC) (F)     (DEG/KT/KT) (MB)    (FT)
BURNS HARBOR     0940   39      CALM  /  2 1017.6F
MICHIGAN CITY    0930   38     250/  1/  1   N/A

$$

INZ004-005-014>016-021>024-251100-
NORTH CENTRAL INDIANA

CITY           SKY/WX    TMP DP  RH WIND       PRES   REMARKS
GOSHEN         CLOUDY    53  49  86 N6        30.03R
SOUTH BEND     LGT RAIN  45  44  97 CALM      30.03F FOG

$$

INZ006>009-017-018-025>027-251100-
NORTHEAST INDIANA

CITY           SKY/WX    TMP DP  RH WIND       PRES   REMARKS
ANGOLA *+      CLOUDY    57  54  88 CALM      30.03S
FORT WAYNE     CLOUDY    56  51  84 SW7       30.03R
KENDALLVILLE + CLOUDY    55  51  88 CALM      30.04R

$$

INZ028-029-035-036-043>045-051>053-251100-
WEST CENTRAL INDIANA

CITY           SKY/WX    TMP DP  RH WIND       PRES   REMARKS
CRAWFORDSVL +  CLOUDY    57  53  84 SE9       29.99S
GREENCASTLE +  CLOUDY    61  52  72 S9        30.01S
LAFAYETTE      CLOUDY    59  52  77 SE6       29.97S
TERRE HAUTE    MOCLDY    63  52  67 SE13      29.97F

$$

INZ030>032-037>040-046>048-054>057-064-065-251100-
CENTRAL INDIANA

CITY           SKY/WX    TMP DP  RH WIND       PRES   REMARKS
INDIANAPOLIS   CLOUDY    61  52  72 SE10      30.01S
-EAGLE CREEK   CLOUDY    62  52  69 S5        30.02R
KOKOMO +       CLOUDY    57  52  83 S10       30.03R
SHELBYVILLE    MOCLDY    63  51  65 S13       30.04S

$$

INZ033-034-041-042-049-050-058-059-251100-
EAST CENTRAL INDIANA

CITY           SKY/WX    TMP DP  RH WIND       PRES   REMARKS
MUNCIE         CLOUDY    62  52  69 S10       30.04S
RICHMOND +     CLOUDY    54  50  87 S9        30.09R

$$

INZ060-061-067>069-081>083-085>088-251100-
SOUTHWEST INDIANA

CITY           SKY/WX    TMP DP  RH WIND       PRES   REMARKS
EVANSVILLE     PTCLDY    63  52  67 SE6       29.98S
HUNTINGBURG *+ CLEAR     64  52  64 S10       30.01S

$$

INZ062-063-066-070>080-084-089>092-251100-
SOUTH CENTRAL AND SOUTHEAST INDIANA

CITY           SKY/WX    TMP DP  RH WIND       PRES   REMARKS
BLOOMINGTON    PTCLDY    60  51  72 S7        30.02S
MADISON *+     CLOUDY    61  46  59 SE7       30.10R
SEYMOUR +      MOCLDY    63  50  63 S8        30.05S

$$





USA.gov is the U.S. government's official web portal to all federal, state and local government web resources and services.